Total_Precipitation_Accumulation
2.02 2.20 2.50 2.99 3.80 4.59 5.32 5.49 5.86 5.46 4.84 4.29 3.88 3.78 3.63 3.33 3.20 3.08 3.04 2.96 2.71 2.64 2.90 2.80 2.91 2.73 2.76 2.73 2.81 3.09 3.22 2.86 2.92 3.38 3.01 2.40 1.99 2.03 1.93 1.97 2.06 2.05 2.08
2.09 2.43 2.95 3.35 3.39 3.95 4.69 4.78 4.52 4.37 3.96 3.62 3.48 3.32 3.30 2.96 2.79 2.67 2.81 2.62 2.47 2.59 2.63 2.79 2.65 2.58 2.73 2.72 2.76 3.01 2.97 2.66 2.84 3.32 3.49 2.98 2.61 2.27 1.85 1.89 1.94 2.00 2.22
1.92 2.34 2.76 3.21 3.20 3.59 3.70 3.37 3.25 3.36 3.32 3.18 3.11 3.01 3.04 2.85 2.63 2.50 2.59 2.43 2.25 2.33 2.41 2.37 2.42 2.54 2.29 2.50 2.73 2.86 2.92 2.84 2.74 2.94 3.43 3.25 2.92 2.55 2.14 1.99 2.09 2.26 2.41
1.39 1.66 1.99 2.41 2.63 2.74 2.67 2.65 2.65 2.74 2.95 2.96 2.77 2.62 2.40 2.35 2.33 2.27 2.37 2.41 2.18 2.08 2.11 2.11 2.30 2.41 2.35 2.61 2.33 2.46 2.74 2.95 2.75 2.74 2.74 2.81 3.06 3.05 2.64 2.29 2.16 2.25 2.38
1.08 1.21 1.30 1.51 1.80 2.07 2.15 2.16 2.50 2.63 2.65 2.65 2.63 2.70 2.45 2.33 2.33 2.47 2.71 2.66 2.31 1.97 1.82 1.95 2.17 2.31 2.38 2.46 2.39 2.50 2.50 2.55 2.58 2.65 2.63 2.77 3.01 2.86 2.76 2.60 2.39 2.29 2.15
0.85 1.03 1.07 1.10 1.23 1.39 1.55 1.70 2.06 2.31 2.37 2.32 2.32 2.40 2.45 2.49 2.34 2.33 2.44 2.39 2.25 2.04 1.85 1.89 2.13 2.22 2.31 2.36 2.39 2.37 2.30 2.39 2.47 2.52 2.54 2.74 2.79 2.75 2.82 2.64 2.46 2.33 2.06
0.68 0.86 0.85 0.89 1.01 1.05 1.17 1.42 1.69 1.87 1.95 2.01 2.09 2.17 2.39 2.38 2.19 2.03 2.13 2.17 2.06 1.96 1.94 1.90 2.21 2.36 2.34 2.29 2.38 2.37 2.32 2.45 2.52 2.53 2.53 2.57 2.55 2.62 2.82 2.83 2.54 2.34 2.12
0.62 0.68 0.62 0.64 0.79 0.87 0.99 1.19 1.36 1.47 1.59 1.79 1.99 2.00 2.15 2.02 1.93 2.10 2.01 1.90 1.72 1.80 2.05 2.16 2.18 2.20 2.23 2.22 2.50 2.33 2.34 2.43 2.46 2.33 2.71 2.66 2.50 2.77 3.01 3.17 3.24 2.87 2.61
0.59 0.60 0.56 0.56 0.59 0.66 0.78 1.03 1.34 1.38 1.39 1.51 1.73 1.82 1.81 1.83 1.96 2.19 2.12 1.94 1.88 1.78 2.00 2.15 2.24 2.19 2.19 2.34 2.59 2.53 2.55 2.65 2.54 2.54 2.83 2.75 2.62 2.71 2.86 3.17 3.48 3.51 3.20
0.67 0.72 0.61 0.62 0.63 0.63 0.76 0.90 1.09 1.31 1.47 1.44 1.44 1.44 1.69 1.77 1.91 2.02 1.93 1.92 1.92 1.96 2.06 2.06 2.09 2.06 2.05 2.21 2.59 2.59 2.60 2.80 2.76 2.73 2.79 2.77 2.65 2.75 2.78 2.93 3.29 3.60 3.60
0.64 0.72 0.57 0.57 0.60 0.68 0.76 0.90 1.04 1.30 1.45 1.33 1.34 1.46 1.64 1.74 1.81 1.98 1.96 1.93 1.96 2.06 2.07 2.07 2.08 2.00 1.90 2.03 2.26 2.35 2.55 2.70 2.76 2.73 2.78 2.77 2.91 2.94 2.82 2.91 3.06 3.32 3.51
0.70 0.76 0.71 0.81 0.83 0.93 0.95 1.00 1.08 1.25 1.35 1.34 1.42 1.52 1.63 1.68 1.74 1.84 1.95 2.01 2.00 2.10 2.14 2.15 2.11 1.93 1.92 2.03 2.13 2.25 2.46 2.60 2.67 2.79 2.90 2.68 2.83 2.95 2.88 2.90 2.91 3.07 3.36
0.85 0.85 0.93 1.06 1.03 1.04 1.15 1.17 1.22 1.28 1.39 1.52 1.53 1.49 1.54 1.53 1.61 1.75 1.85 1.98 2.05 2.13 2.23 2.26 2.17 2.10 2.14 2.21 2.26 2.35 2.49 2.56 2.60 2.71 2.72 2.67 2.84 2.72 2.81 2.91 2.85 2.87 2.91
0.92 0.87 0.94 1.02 1.06 1.12 1.26 1.36 1.34 1.29 1.35 1.40 1.46 1.52 1.54 1.61 1.72 1.83 1.92 2.00 2.02 2.07 2.07 2.04 2.13 2.20 2.24 2.28 2.30 2.30 2.33 2.37 2.43 2.40 2.31 2.27 2.33 2.39 2.60 2.58 2.57 2.68 2.78
0.93 0.89 0.93 1.01 1.19 1.23 1.20 1.23 1.28 1.31 1.44 1.46 1.43 1.52 1.65 1.70 1.74 1.77 1.81 1.87 1.90 1.85 2.01 2.04 2.14 2.22 2.18 2.06 2.17 2.21 2.15 2.31 2.22 2.06 2.02 2.03 2.13 2.17 2.25 2.13 2.24 2.45 2.53
0.94 0.95 1.05 1.17 1.19 1.12 1.11 1.10 1.06 1.17 1.37 1.48 1.57 1.66 1.68 1.63 1.72 1.76 1.76 1.78 1.84 1.93 2.00 2.03 2.16 2.23 2.07 2.13 2.19 2.23 2.21 2.24 2.15 2.10 2.03 1.91 1.94 1.96 1.97 1.95 1.99 2.14 2.27
0.88 0.98 1.08 1.12 1.14 1.21 1.20 1.08 0.96 1.09 1.40 1.51 1.54 1.75 1.87 1.78 1.85 1.86 1.86 1.84 1.88 2.05 2.12 2.22 2.29 2.23 2.34 2.30 2.13 2.17 2.12 2.14 2.16 2.19 2.16 1.86 1.68 1.86 1.82 1.95 1.89 1.82 1.88
0.76 0.87 0.94 0.98 1.02 1.08 1.10 1.08 1.07 1.12 1.39 1.62 1.72 2.00 2.17 2.02 2.00 2.02 2.04 2.08 2.18 2.25 2.33 2.36 2.29 2.27 2.37 2.37 2.04 1.97 1.88 1.95 2.03 2.07 2.11 2.12 2.02 2.01 2.06 2.09 2.03 1.90 1.84
0.78 0.82 0.92 1.00 1.12 1.27 1.27 1.25 1.34 1.45 1.62 1.80 1.95 2.21 2.43 2.54 2.49 2.32 2.38 2.47 2.47 2.44 2.50 2.57 2.56 2.44 2.48 2.36 1.99 1.86 1.74 1.83 1.90 1.95 1.94 1.97 1.88 1.94 1.87 1.82 1.80 1.77 1.71
0.82 0.97 1.13 1.17 1.23 1.43 1.44 1.46 1.59 1.83 1.98 1.97 2.00 2.21 2.46 2.57 2.54 2.50 2.67 2.77 2.67 2.58 2.63 2.54 2.42 2.29 2.31 2.30 1.97 1.77 1.65 1.76 1.86 1.95 1.91 1.89 1.79 1.78 1.63 1.54 1.56 1.51 1.53
0.86 0.92 0.95 1.10 1.23 1.37 1.51 1.69 1.77 1.90 2.00 2.06 2.07 2.18 2.41 2.69 2.64 2.68 2.75 2.83 2.82 2.82 2.83 2.73 2.60 2.41 2.35 2.37 2.07 1.85 1.67 1.73 1.78 1.70 1.67 1.67 1.68 1.48 1.42 1.39 1.37 1.40 1.43
0.90 0.95 0.91 1.01 1.20 1.41 1.65 1.77 1.80 1.89 2.06 2.10 2.09 2.15 2.41 2.54 2.59 2.75 2.81 2.91 3.01 2.98 2.94 2.93 2.71 2.64 2.56 2.29 2.02 1.85 1.79 1.83 1.84 1.76 1.71 1.69 1.61 1.39 1.30 1.17 1.13 1.20 1.18
1.02 1.11 1.13 1.13 1.25 1.44 1.66 1.87 1.91 1.92 1.89 1.87 1.88 2.00 2.19 2.31 2.47 2.59 2.53 2.59 2.73 2.69 2.70 2.69 2.61 2.65 2.76 2.57 2.13 1.84 1.75 1.78 1.80 1.88 1.95 1.76 1.62 1.49 1.35 1.31 1.25 1.15 1.07
1.22 1.25 1.37 1.37 1.37 1.45 1.63 1.80 1.82 1.85 1.84 1.79 1.77 1.90 2.15 2.28 2.37 2.44 2.41 2.45 2.49 2.54 2.60 2.63 2.56 2.57 2.71 2.68 2.36 2.02 1.80 1.72 1.66 1.66 1.66 1.58 1.52 1.43 1.31 1.26 1.17 1.04 1.06
1.26 1.26 1.38 1.47 1.44 1.46 1.63 1.75 1.81 1.89 1.95 1.93 1.92 2.05 2.15 2.23 2.40 2.46 2.49 2.49 2.46 2.44 2.43 2.41 2.35 2.37 2.47 2.51 2.31 2.02 1.83 1.73 1.70 1.66 1.62 1.59 1.59 1.49 1.41 1.34 1.30 1.31 1.31
1.34 1.40 1.47 1.50 1.46 1.45 1.57 1.71 1.90 2.07 2.14 2.07 2.06 2.07 2.05 2.12 2.14 2.17 2.14 2.10 2.03 2.04 2.01 2.00 1.92 1.88 2.06 2.08 1.80 1.65 1.68 1.68 1.65 1.55 1.54 1.58 1.62 1.56 1.51 1.47 1.41 1.41 1.42